Tracking 28790 objects as of 19-Apr-2024
HD Live streaming from Space Station
objects crossing your sky now

METEOR 2-17 DEB

Track METEOR 2-17 DEB now!
10-day predictions


NORAD ID: 38541
Int'l Code: 1988-005AU
Perigee: 884.6 km
Apogee: 898.7 km
Inclination: 82.5 °
Period: 102.7 minutes
Semi major axis: 7262 km
RCS: 0.003 m2 (small)
Launch date: January 30, 1988
Source: Commonwealth of Independent States (former USSR) (CIS)
Launch site: PLESETSK MISSILE AND SPACE COMPLEX (PKMTR)

Note: This is SATELLITE DEBRIS
Your satellite tracking list
Your tracking list is empty




NASA's NSSDC Master Catalog

Two Line Element Set (TLE):
1 38541U 88005AU  24102.50681842  .00003063  00000-0  19747-2 0  9997
2 38541  82.5274 170.6316 0009754   2.9800 357.1427 14.02683844547510
Source of the keplerian elements: AFSPC